Regional Weather Roundup
Issued by NWS

Home | Current Version | Previous Version | Graphics & Text | Print | Product List | Glossary On
Versions: 1 2 3 4 5 6 7 8 9 10 11 12 13 14 15 16 17 18 19 20 21 22 23 24 25 26 27 28 29 30 31 32 33 34 35 36 37 38 39 40 41 42 43 44 45 46 47 48 49 50
000
ASUS43 KOAX 221910
RWRNE

WEATHER ROUNDUP FOR NEBRASKA
NATIONAL WEATHER SERVICE OMAHA NE
200 PM CDT MON SEP 22 2014

NOTES: SATELLITE DATA IS BEING USED TO AUGMENT CLOUD COVER ABOVE
       12000 FEET.
       "FAIR" INDICATES FEW OR NO CLOUDS BELOW 12,000 FEET WITH NO
       SIGNIFICANT WEATHER AND/OR OBSTRUCTIONS TO VISIBILITY.

  * THESE STATIONS DO NOT REPORT WEATHER SUCH AS RAIN...SNOW OR FOG.

NEZ001>004-019>022-054>056-222000-
NEBRASKA PANHANDLE

CITY           SKY/WX    TMP DP  RH WIND       PRES   REMARKS
SCOTTSBLUFF    PTSUNNY   74  55  51 SE14G21   30.08F
ALLIANCE       CLOUDY    61  55  81 SE12      30.12
CHADRON        CLOUDY    69  48  47 S20       30.03F
KIMBALL        PTSUNNY   72  50  44 S8        30.12F
SIDNEY         PTSUNNY   69  53  56 S23       30.14F
$$

NEZ057>060-069>072-079>082-222000-
SOUTHWEST NEBRASKA

CITY           SKY/WX    TMP DP  RH WIND       PRES   REMARKS
NORTH PLATTE   CLOUDY    67  46  47 S12       30.19F
IMPERIAL       LGT RAIN  61  52  72 S12       30.18F
LEXINGTON      MOSUNNY   72  48  43 S15       30.23F
MCCOOK         LGT RAIN  75  44  33 S13G24    30.21F
OGALLALA       LGT RAIN  65  50  57 S10G17    30.18F
$$

NEZ005>010-023>029-035>040-094-222000-
NORTH CENTRAL NEBRASKA

CITY           SKY/WX    TMP DP  RH WIND       PRES   REMARKS
VALENTINE      CLOUDY    72  43  35 S25G33    30.13F
AINSWORTH      CLOUDY    68  45  42 S18G25    30.17F
BROKEN BOW     CLOUDY    74  48  39 S16G26    30.22F
O`NEILL        MOSUNNY   74  50  43 S14G21    30.19F
ORD            PTSUNNY   72  48  42 S16       30.21F
THEDFORD       PTSUNNY   72  45  37 S21G26    30.19F
$$

NEZ041-046>049-061>064-073>077-083>087-222000-
SOUTH CENTRAL NEBRASKA

CITY           SKY/WX    TMP DP  RH WIND       PRES   REMARKS
GRAND ISLAND   PTSUNNY   72  48  42 S13G21    30.25F
AURORA         PTSUNNY   71  44  36 S12       30.25F
HASTINGS       PTSUNNY   71  44  37 S13G21    30.25F
HEBRON         PTSUNNY   72  43  35 SW5       30.26F
HOLDREGE       MOSUNNY   72  46  39 S16G22    30.24F
KEARNEY *      PTSUNNY   72  48  43 S13G23    30.25F
YORK           MOSUNNY   72  48  43 S9        30.25F
$$

NEZ011>018-030>034-042>045-222000-
NORTHEAST NEBRASKA

CITY           SKY/WX    TMP DP  RH WIND       PRES   REMARKS
NORFOLK        SUNNY     72  47  40 S10       30.23F
ALBION         MOSUNNY   73  47  39 S14       30.23F
BLAIR          SUNNY     72  49  44 S5        30.27F
COLUMBUS *     SUNNY     72  48  43 SW10      30.25F
FREMONT        SUNNY     72  47  40 S6        30.27F
TEKAMAH        SUNNY     73  46  38 S8        30.26F
WAYNE          SUNNY     73  47  39 S7        30.24F
$$

NEZ050>053-065>068-078-088>093-222000-
SOUTHEAST NEBRASKA

CITY           SKY/WX    TMP DP  RH WIND       PRES   REMARKS
LINCOLN        SUNNY     73  46  38 S8        30.27F
OMAHA EPPLEY   MOSUNNY   71  49  45 S8        30.27F
BEATRICE       SUNNY     73  47  39 S7        30.27F
FALLS CITY     SUNNY     73  50  44 VRB5      30.27F
NEBRASKA CITY    N/A     71  40  33 S6        30.28F
PLATTSMOUTH    SUNNY     71  46  40 S6        30.28F
$$

NEZ044-045-051>053-067-222000-
OMAHA AREA

CITY           SKY/WX    TMP DP  RH WIND       PRES   REMARKS
OMAHA EPPLEY   MOSUNNY   71  49  45 S8        30.27F
BLAIR          SUNNY     72  49  44 S5        30.27F
FREMONT        SUNNY     72  47  40 S6        30.27F
MILLARD        SUNNY     71  49  44 SW7       30.26F
OFFUTT AFB     SUNNY     72  53  50 SE8       30.27F
PLATTSMOUTH    SUNNY     71  46  40 S6        30.28F
WAHOO          FAIR      73  45  36 S9        30.27F
$$


USA.gov is the U.S. government's official web portal to all federal, state and local government web resources and services.